Regional Weather Roundup
Issued by NWS Raleigh/Durham, NC

Home | Current Version | Previous Version | Text Only | Print | Product List | Glossary On
Versions: 1 2 3 4 5 6 7 8 9 10 11 12 13 14 15 16 17 18 19 20 21 22 23 24 25 26 27 28 29 30 31 32 33 34 35 36 37 38 39 40 41 42 43 44 45 46 47 48 49 50
000
ASUS42 KRAH 180110
RWRRAH
NORTH CAROLINA WEATHER ROUNDUP
NATIONAL WEATHER SERVICE RALEIGH NC
800 PM EST WED DEC 17 2014

NOTE: "FAIR" INDICATES FEW OR NO CLOUDS BELOW 12,000 FEET WITH NO
SIGNIFICANT WEATHER AND/OR OBSTRUCTIONS TO VISIBILITY.

NCZ001-053-055-056-065-067-180200-
WESTERN NORTH CAROLINA

CITY           SKY/WX    TMP DP  RH WIND       PRES   REMARKS
ASHEVILLE      MOCLDY    39  31  72 N15       30.13R WCI  31
JEFFERSON      PTCLDY    36  27  70 NW12G21   30.07S WCI  28
MORGANTON      MOCLDY    45  29  53 N3        30.14S
HICKORY        MOCLDY    47  29  49 NW3       30.08S
RUTHERFORDTON  MOCLDY    47  33  59 NW7       30.10S
MOUNT AIRY     MOCLDY    47  31  54 NW3       30.10S
BOONE          MOCLDY    35  29  79 NW7       30.10S WCI  29
$$

NCZ021-022-025-041-071-084-088-180200-
CENTRAL NORTH CAROLINA

CITY           SKY/WX    TMP DP  RH WIND       PRES   REMARKS
CHARLOTTE      MOCLDY    49  34  56 SW3       30.09S
GREENSBORO     MOCLDY    49  29  46 NW8       30.06S
WINSTON-SALEM  MOCLDY    49  28  44 NW8       30.08S
RALEIGH-DURHAM MOCLDY    46  36  68 CALM      30.07R
FORT BRAGG     PTCLDY    45  39  81 CALM      30.07S
FAYETTEVILLE   PTCLDY    44  40  85 W5        30.07S
BURLINGTON     MOCLDY    44  33  65 W3        30.06S
LAURINBURG     PTCLDY    44  40  85 CALM      30.09S
$$

NCZ011-015-027-028-043-044-047-080-103-180200-
NORTHEASTERN NORTH CAROLINA

CITY           SKY/WX    TMP DP  RH WIND       PRES   REMARKS
ROCKY MT-WILSO PTCLDY    41  38  89 CALM      30.06R
GREENVILLE     PTCLDY    41  41 100 CALM      30.08S
WASHINGTON     CLEAR     43  40  89 CALM      30.06S
ELIZABETH CITY PTCLDY    50  39  66 SW6       30.04R
MANTEO         CLEAR     44  43  98 CALM      30.05R
CAPE HATTERAS  CLEAR     50  47  89 W6        30.06R
$$

NCZ078-087-090-091-093-098-101-180200-
SOUTHEASTERN NORTH CAROLINA

CITY           SKY/WX    TMP DP  RH WIND       PRES   REMARKS
LUMBERTON      CLEAR     42  40  92 CALM      30.08S
GOLDSBORO      PTCLDY    46  46  97 CALM      30.06R
KINSTON        PTCLDY    46  39  76 SW3       30.07S
KENANSVILLE    CLEAR     41  39  93 CALM      30.08S
NEW BERN       CLEAR     46  41  82 CALM      30.08R
CHERRY POINT   NOT AVBL
BEAUFORT       CLEAR     53  48  83 W8        30.07S
JACKSONVILLE   CLEAR     48  41  76 SW6       30.08R
WILMINGTON     CLEAR     49  43  80 SW5       30.08S
$$



USA.gov is the U.S. government's official web portal to all federal, state and local government web resources and services.